| time (UTC) | temp C | wind direction | speed KPH | gust KPH | rain 1hr cm | rain 24hr cm | rain mn cm | humidity % | barometer mb |
| 20260506222004 | 15 | 165 | 3.2 | 14.5 | 0.00 | 0.00 | 0.00 | 78 | 1021.9 |
| 20260506221512 | 15 | 196 | 1.6 | 11.3 | 0.00 | 0.00 | 0.00 | 78 | 1021.9 |
| 20260506221003 | 15 | 108 | 3.2 | 12.9 | 0.00 | 0.00 | 0.00 | 77 | 1022.0 |
| 20260506220504 | 15 | 51 | 1.6 | 16.1 | 0.00 | 0.00 | 0.00 | 78 | 1022.0 |
| 20260506220012 | 15 | 120 | 4.8 | 16.1 | 0.00 | 0.00 | 0.00 | 77 | 1022.1 |
| 20260506215504 | 15 | 126 | 4.8 | 16.1 | 0.00 | 0.00 | 0.00 | 75 | 1022.0 |
| 20260506215006 | 15 | 68 | 1.6 | 12.9 | 0.00 | 0.00 | 0.00 | 78 | 1021.9 |
| 20260506214514 | 15 | 265 | 3.2 | 6.4 | 0.00 | 0.00 | 0.00 | 80 | 1021.8 |
| 20260506214004 | 14 | 162 | 1.6 | 9.7 | 0.00 | 0.00 | 0.00 | 79 | 1021.8 |
| 20260506213505 | 14 | 151 | 3.2 | 9.7 | 0.00 | 0.00 | 0.00 | 79 | 1021.9 |
| 20260506213012 | 14 | 162 | 1.6 | 6.4 | 0.00 | 0.00 | 0.00 | 81 | 1021.9 |
| 20260506212504 | 14 | 137 | 1.6 | 6.4 | 0.00 | 0.00 | 0.00 | 80 | 1021.9 |
| 20260506212009 | 14 | 120 | 0.0 | 6.4 | 0.00 | 0.00 | 0.00 | 82 | 1021.9 |
| 20260506211515 | 13 | 41 | 1.6 | 6.4 | 0.00 | 0.00 | 0.00 | 81 | 1022.0 |
| 20260506211006 | 13 | 129 | 3.2 | 6.4 | 0.00 | 0.00 | 0.00 | 81 | 1022.0 |
| 20260506210507 | 13 | 153 | 0.0 | 8.0 | 0.00 | 0.00 | 0.00 | 83 | 1021.9 |
| 20260506210036 | 13 | 196 | 1.6 | 12.9 | 0.00 | 0.00 | 0.00 | 83 | 1021.9 |
| 20260506205503 | 13 | 160 | 6.4 | 12.9 | 0.00 | 0.00 | 0.00 | 83 | 1021.9 |
| 20260506205009 | 13 | 153 | 3.2 | 12.9 | 0.00 | 0.00 | 0.00 | 83 | 1022.0 |
| 20260506204518 | 13 | 140 | 4.8 | 12.9 | 0.00 | 0.00 | 0.00 | 83 | 1021.9 |
| 20260506203509 | 13 | 128 | 6.4 | 12.9 | 0.00 | 0.00 | 0.00 | 83 | 1021.8 |
| 20260506200004 | 12 | 134 | 3.2 | 9.7 | 0.00 | 0.00 | 0.00 | 87 | 1021.9 |
| 20260506195504 | 12 | 137 | 3.2 | 9.7 | 0.00 | 0.00 | 0.00 | 87 | 1021.9 |
| 20260506195005 | 12 | 153 | 1.6 | 8.0 | 0.00 | 0.00 | 0.00 | 87 | 1021.8 |
| 20260506194506 | 12 | 139 | 3.2 | 12.9 | 0.00 | 0.00 | 0.00 | 87 | 1021.7 |
| 20260506194002 | 12 | 165 | 1.6 | 12.9 | 0.00 | 0.00 | 0.00 | 87 | 1021.7 |
| 20260506193504 | 12 | 138 | 3.2 | 11.3 | 0.00 | 0.00 | 0.00 | 87 | 1021.6 |
| 20260506193003 | 12 | 239 | 1.6 | 8.0 | 0.00 | 0.00 | 0.00 | 87 | 1021.6 |
| 20260506192502 | 12 | 93 | 3.2 | 11.3 | 0.00 | 0.00 | 0.00 | 86 | 1021.7 |
| 20260506192002 | 12 | 76 | 3.2 | 11.3 | 0.00 | 0.00 | 0.00 | 86 | 1021.6 |
| 20260506191510 | 13 | 123 | 1.6 | 6.4 | 0.00 | 0.00 | 0.00 | 87 | 1021.6 |
| 20260506191004 | 13 | 129 | 0.0 | 6.4 | 0.00 | 0.00 | 0.00 | 87 | 1021.6 |
| 20260506190507 | 12 | 51 | 0.0 | 11.3 | 0.00 | 0.00 | 0.00 | 87 | 1021.6 |
| 20260506190005 | 12 | 158 | 3.2 | 11.3 | 0.00 | 0.00 | 0.00 | 86 | 1021.5 |
| 20260506185505 | 12 | 156 | 3.2 | 12.9 | 0.00 | 0.00 | 0.00 | 87 | 1021.5 |
| 20260506185003 | 12 | 144 | 6.4 | 12.9 | 0.00 | 0.00 | 0.00 | 87 | 1021.4 |
| 20260506184505 | 12 | 178 | 3.2 | 9.7 | 0.00 | 0.00 | 0.00 | 87 | 1021.5 |
| 20260506184003 | 12 | 153 | 1.6 | 9.7 | 0.00 | 0.00 | 0.00 | 89 | 1021.5 |
| 20260506183503 | 12 | 148 | 4.8 | 8.0 | 0.00 | 0.00 | 0.00 | 88 | 1021.4 |
| 20260506183004 | 12 | 150 | 3.2 | 8.0 | 0.00 | 0.00 | 0.00 | 87 | 1021.3 |
| 20260506182506 | 12 | 140 | 1.6 | 11.3 | 0.00 | 0.00 | 0.00 | 88 | 1021.3 |
| 20260506182003 | 12 | 153 | 4.8 | 12.9 | 0.00 | 0.00 | 0.00 | 87 | 1021.2 |
| 20260506181505 | 12 | 144 | 8.0 | 12.9 | 0.00 | 0.00 | 0.00 | 87 | 1021.2 |
| 20260506181003 | 12 | 129 | 3.2 | 12.9 | 0.00 | 0.00 | 0.00 | 88 | 1021.2 |
| 20260506180503 | 12 | 205 | 4.8 | 12.9 | 0.00 | 0.00 | 0.00 | 88 | 1021.2 |
| 20260506180003 | 12 | 205 | 1.6 | 8.0 | 0.00 | 0.00 | 0.00 | 89 | 1021.1 |
| 20260506175502 | 12 | 129 | 1.6 | 8.0 | 0.00 | 0.00 | 0.00 | 89 | 1021.1 |
| 20260506175003 | 12 | 153 | 0.0 | 8.0 | 0.00 | 0.00 | 0.00 | 88 | 1021.3 |
| 20260506174503 | 12 | 205 | 1.6 | 4.8 | 0.00 | 0.00 | 0.00 | 89 | 1021.1 |
| 20260506174004 | 12 | 221 | 0.0 | 8.0 | 0.00 | 0.00 | 0.00 | 89 | 1020.9 |
| 20260506173506 | 12 | 51 | 1.6 | 11.3 | 0.00 | 0.00 | 0.00 | 89 | 1020.8 |
| 20260506173004 | 12 | 165 | 4.8 | 11.3 | 0.00 | 0.00 | 0.00 | 88 | 1020.7 |
| 20260506172512 | 12 | 153 | 3.2 | 9.7 | 0.00 | 0.00 | 0.00 | 89 | 1020.8 |
| 20260506172012 | 12 | 212 | 3.2 | 8.0 | 0.00 | 0.00 | 0.00 | 90 | 1020.9 |
| 20260506171532 | 12 | 243 | 1.6 | 6.4 | 0.00 | 0.00 | 0.00 | 90 | 1021.0 |
| 20260506171013 | 12 | 165 | 1.6 | 6.4 | 0.00 | 0.00 | 0.00 | 90 | 1021.0 |
| 20260506170509 | 12 | 162 | 0.0 | 6.4 | 0.00 | 0.00 | 0.00 | 90 | 1021.0 |
| 20260506170030 | 12 | 229 | 1.6 | 4.8 | 0.00 | 0.00 | 0.00 | 90 | 1020.9 |
| 20260506165507 | 12 | 178 | 1.6 | 4.8 | 0.00 | 0.00 | 0.00 | 91 | 1020.8 |
| 20260506165009 | 12 | 93 | 0.0 | 3.2 | 0.00 | 0.00 | 0.00 | 91 | 1020.8 |
| 20260506164542 | 12 | 162 | 0.0 | 6.4 | 0.00 | 0.00 | 0.00 | 91 | 1021.0 |
| 20260506164006 | 11 | 265 | 0.0 | 6.4 | 0.00 | 0.00 | 0.00 | 91 | 1021.2 |
| 20260506163510 | 11 | 126 | 0.0 | 6.4 | 0.00 | 0.00 | 0.00 | 91 | 1021.1 |
| 20260506163024 | 11 | 93 | 0.0 | 6.4 | 0.00 | 0.00 | 0.00 | 91 | 1021.1 |
| 20260506162510 | 11 | 158 | 1.6 | 6.4 | 0.00 | 0.00 | 0.00 | 91 | 1021.0 |
| 20260506162008 | 11 | 51 | 0.0 | 8.0 | 0.00 | 0.00 | 0.00 | 91 | 1021.0 |
| 20260506161526 | 11 | 93 | 0.0 | 8.0 | 0.00 | 0.00 | 0.00 | 91 | 1021.0 |
| 20260506161010 | 11 | 139 | 3.2 | 8.0 | 0.00 | 0.00 | 0.00 | 91 | 1020.9 |
| 20260506160510 | 11 | 153 | 3.2 | 9.7 | 0.00 | 0.00 | 0.00 | 91 | 1021.0 |
| 20260506160024 | 11 | 108 | 1.6 | 9.7 | 0.00 | 0.00 | 0.00 | 91 | 1021.0 |
| 20260506155508 | 11 | 178 | 3.2 | 9.7 | 0.00 | 0.00 | 0.00 | 92 | 1020.9 |
| 20260506155013 | 11 | 186 | 3.2 | 9.7 | 0.00 | 0.00 | 0.00 | 92 | 1020.8 |
| 20260506121009 | 10 | 93 | 0.0 | 1.6 | 0.00 | 0.00 | 0.00 | 95 | 1019.9 |
| 20260506120511 | 10 | 51 | 0.0 | 4.8 | 0.00 | 0.00 | 0.00 | 95 | 1019.9 |
| 20260506120048 | 10 | 93 | 0.0 | 4.8 | 0.00 | 0.00 | 0.00 | 95 | 1019.8 |
| 20260506115508 | 10 | 93 | 0.0 | 1.6 | 0.00 | 0.00 | 0.00 | 95 | 1019.8 |
| 20260506115009 | 10 | 137 | 0.0 | 0.0 | 0.00 | 0.00 | 0.00 | 95 | 1019.7 |
| 20260506114531 | 10 | 51 | 0.0 | 0.0 | 0.00 | 0.00 | 0.00 | 95 | 1019.8 |
| 20260506114012 | 10 | 93 | 0.0 | 0.0 | 0.00 | 0.00 | 0.00 | 95 | 1019.7 |
| 20260506113510 | 10 | 51 | 0.0 | 0.0 | 0.00 | 0.00 | 0.00 | 95 | 1019.6 |
| 20260506113025 | 10 | 93 | 0.0 | 0.0 | 0.00 | 0.00 | 0.00 | 95 | 1019.6 |
| 20260506112510 | 10 | 93 | 0.0 | 0.0 | 0.00 | 0.00 | 0.00 | 95 | 1019.5 |
| 20260506112013 | 10 | 9 | 0.0 | 0.0 | 0.00 | 0.00 | 0.00 | 95 | 1019.4 |
| 20260506111527 | 10 | 93 | 0.0 | 0.0 | 0.00 | 0.00 | 0.00 | 95 | 1019.2 |
| 20260506111010 | 10 | 93 | 0.0 | 1.6 | 0.00 | 0.00 | 0.00 | 95 | 1019.2 |
| 20260506110510 | 10 | 178 | 0.0 | 1.6 | 0.00 | 0.00 | 0.00 | 95 | 1019.1 |
| 20260506110006 | 10 | 137 | 0.0 | 1.6 | 0.00 | 0.00 | 0.00 | 94 | 1019.2 |
| 20260506105505 | 9 | 137 | 0.0 | 1.6 | 0.00 | 0.00 | 0.00 | 94 | 1019.1 |
| 20260506105002 | 9 | 93 | 0.0 | 0.0 | 0.00 | 0.00 | 0.00 | 94 | 1019.1 |
| 20260506104503 | 9 | 93 | 0.0 | 0.0 | 0.00 | 0.00 | 0.00 | 94 | 1018.8 |
| 20260506104006 | 9 | 178 | 0.0 | 0.0 | 0.00 | 0.00 | 0.00 | 94 | 1018.7 |
| 20260506103502 | 9 | 93 | 0.0 | 0.0 | 0.00 | 0.00 | 0.00 | 94 | 1018.7 |
| 20260506103013 | 9 | 137 | 0.0 | 1.6 | 0.00 | 0.00 | 0.00 | 94 | 1018.8 |
| 20260506102502 | 9 | 137 | 0.0 | 1.6 | 0.00 | 0.00 | 0.00 | 94 | 1018.8 |
| 20260506102003 | 9 | 137 | 0.0 | 0.0 | 0.00 | 0.00 | 0.00 | 94 | 1018.8 |
| 20260506101505 | 9 | 178 | 0.0 | 0.0 | 0.00 | 0.00 | 0.00 | 94 | 1018.8 |
| 20260506101002 | 9 | 93 | 0.0 | 0.0 | 0.00 | 0.00 | 0.00 | 94 | 1018.8 |
| 20260506100502 | 9 | 93 | 0.0 | 0.0 | 0.00 | 0.00 | 0.00 | 94 | 1018.8 |
| 20260506100005 | 9 | 93 | 0.0 | 0.0 | 0.00 | 0.00 | 0.00 | 93 | 1018.7 |
| 20260506095503 | 9 | 51 | 0.0 | 0.0 | 0.00 | 0.00 | 0.00 | 93 | 1018.7 |
| 20260506095004 | 8 | 51 | 0.0 | 0.0 | 0.00 | 0.00 | 0.00 | 93 | 1018.7 |
| 20260506094503 | 9 | 221 | 0.0 | 0.0 | 0.00 | 0.00 | 0.00 | 93 | 1018.6 |
| 20260506094003 | 9 | 51 | 0.0 | 0.0 | 0.00 | 0.00 | 0.00 | 93 | 1018.6 |
| 20260506093503 | 9 | 9 | 0.0 | 0.0 | 0.00 | 0.00 | 0.00 | 93 | 1018.6 |
| 20260506093016 | 9 | 51 | 0.0 | 0.0 | 0.00 | 0.00 | 0.00 | 93 | 1018.7 |
| 20260506092509 | 9 | 93 | 0.0 | 0.0 | 0.00 | 0.00 | 0.00 | 93 | 1018.7 |
| 20260506092014 | 9 | 51 | 0.0 | 0.0 | 0.00 | 0.00 | 0.00 | 93 | 1018.7 |
| 20260506091525 | 9 | 93 | 0.0 | 0.0 | 0.00 | 0.00 | 0.00 | 93 | 1018.6 |
| 20260506091011 | 9 | 51 | 0.0 | 0.0 | 0.00 | 0.00 | 0.00 | 93 | 1018.6 |
| 20260506090509 | 9 | 51 | 0.0 | 1.6 | 0.00 | 0.00 | 0.00 | 92 | 1018.6 |
| 20260506090023 | 9 | 325 | 0.0 | 1.6 | 0.00 | 0.00 | 0.00 | 92 | 1018.5 |
| 20260506085508 | 9 | 9 | 0.0 | 1.6 | 0.00 | 0.00 | 0.00 | 93 | 1018.4 |
| 20260506085009 | 9 | 9 | 0.0 | 1.6 | 0.00 | 0.00 | 0.00 | 92 | 1018.3 |
| 20260506084558 | 9 | 51 | 0.0 | 1.6 | 0.00 | 0.00 | 0.00 | 92 | 1018.3 |
| 20260506084017 | 9 | 9 | 0.0 | 1.6 | 0.00 | 0.00 | 0.00 | 92 | 1018.2 |
| 20260506083511 | 9 | 9 | 0.0 | 1.6 | 0.00 | 0.00 | 0.00 | 92 | 1018.1 |
| 20260506083026 | 9 | 51 | 0.0 | 1.6 | 0.00 | 0.00 | 0.00 | 92 | 1018.2 |
| 20260506082507 | 9 | 51 | 0.0 | 1.6 | 0.00 | 0.00 | 0.00 | 92 | 1018.2 |
| 20260506082011 | 9 | 68 | 0.0 | 1.6 | 0.00 | 0.00 | 0.00 | 92 | 1018.2 |
| 20260506081534 | 9 | 51 | 0.0 | 1.6 | 0.00 | 0.00 | 0.00 | 92 | 1018.1 |
| 20260506081011 | 9 | 51 | 0.0 | 1.6 | 0.00 | 0.00 | 0.00 | 91 | 1018.1 |
| 20260506080507 | 9 | 51 | 0.0 | 1.6 | 0.00 | 0.00 | 0.00 | 91 | 1018.1 |
| 20260506073510 | 10 | 51 | 0.0 | 3.2 | 0.00 | 0.00 | 0.00 | 91 | 1017.7 |
| 20260506073027 | 10 | 68 | 0.0 | 3.2 | 0.00 | 0.00 | 0.00 | 91 | 1017.7 |
| 20260506072509 | 10 | 51 | 0.0 | 1.6 | 0.00 | 0.00 | 0.00 | 91 | 1017.7 |
| 20260506072013 | 10 | 51 | 0.0 | 1.6 | 0.00 | 0.00 | 0.00 | 91 | 1017.7 |
| 20260506071529 | 10 | 51 | 0.0 | 1.6 | 0.00 | 0.00 | 0.00 | 91 | 1017.6 |
| 20260506071009 | 10 | 34 | 0.0 | 1.6 | 0.00 | 0.00 | 0.00 | 91 | 1017.6 |
| 20260506070508 | 10 | 9 | 0.0 | 1.6 | 0.00 | 0.00 | 0.00 | 91 | 1017.6 |
| 20260506062512 | 10 | 9 | 0.0 | 1.6 | 0.00 | 0.00 | 0.00 | 90 | 1017.6 |
| 20260506062009 | 10 | 51 | 0.0 | 1.6 | 0.00 | 0.00 | 0.00 | 90 | 1017.6 |
| 20260506061526 | 10 | 51 | 0.0 | 1.6 | 0.00 | 0.00 | 0.00 | 90 | 1017.5 |
| 20260506061010 | 11 | 68 | 0.0 | 1.6 | 0.00 | 0.00 | 0.00 | 90 | 1017.5 |
| 20260506060510 | 11 | 51 | 0.0 | 1.6 | 0.00 | 0.00 | 0.00 | 90 | 1017.5 |
| 20260506051013 | 11 | 265 | 0.0 | 1.6 | 0.00 | 0.00 | 0.00 | 88 | 1017.1 |
| 20260506050510 | 12 | 51 | 0.0 | 1.6 | 0.00 | 0.00 | 0.00 | 87 | 1016.9 |
| 20260506045010 | 12 | 67 | 0.0 | 1.6 | 0.00 | 0.00 | 0.00 | 87 | 1016.8 |
| 20260506044523 | 12 | 9 | 0.0 | 1.6 | 0.00 | 0.00 | 0.00 | 87 | 1016.8 |
| 20260506044004 | 12 | 51 | 0.0 | 1.6 | 0.00 | 0.00 | 0.00 | 86 | 1016.8 |
| 20260506043502 | 12 | 51 | 0.0 | 1.6 | 0.00 | 0.00 | 0.00 | 86 | 1016.8 |
| 20260506043004 | 12 | 51 | 0.0 | 1.6 | 0.00 | 0.00 | 0.00 | 84 | 1016.7 |
| 20260506042504 | 13 | 51 | 0.0 | 1.6 | 0.00 | 0.00 | 0.00 | 84 | 1016.7 |
| 20260506042003 | 13 | 51 | 0.0 | 1.6 | 0.00 | 0.00 | 0.00 | 84 | 1016.7 |
| 20260506041504 | 13 | 51 | 0.0 | 0.0 | 0.00 | 0.00 | 0.00 | 84 | 1016.7 |
| 20260506041001 | 13 | 9 | 0.0 | 1.6 | 0.00 | 0.00 | 0.00 | 83 | 1016.6 |
| 20260506040502 | 13 | 51 | 0.0 | 1.6 | 0.00 | 0.00 | 0.00 | 83 | 1016.6 |
| 20260506040006 | 13 | 51 | 0.0 | 1.6 | 0.00 | 0.00 | 0.00 | 82 | 1016.5 |
| 20260506035503 | 13 | 51 | 0.0 | 1.6 | 0.00 | 0.00 | 0.00 | 82 | 1016.5 |
| 20260506035003 | 13 | 93 | 0.0 | 1.6 | 0.00 | 0.00 | 0.00 | 82 | 1016.5 |
| 20260506034504 | 14 | 9 | 0.0 | 1.6 | 0.00 | 0.00 | 0.00 | 82 | 1016.5 |
| 20260506034003 | 14 | 51 | 0.0 | 1.6 | 0.00 | 0.00 | 0.00 | 81 | 1016.4 |
| 20260506033504 | 14 | 9 | 0.0 | 1.6 | 0.00 | 0.00 | 0.00 | 80 | 1016.4 |
| 20260506033007 | 15 | 93 | 0.0 | 1.6 | 0.00 | 0.00 | 0.00 | 81 | 1016.4 |
| 20260506032503 | 15 | 51 | 0.0 | 1.6 | 0.00 | 0.00 | 0.00 | 79 | 1016.4 |
| 20260506032003 | 15 | 51 | 0.0 | 1.6 | 0.00 | 0.00 | 0.00 | 79 | 1016.4 |
| 20260506031504 | 15 | 51 | 0.0 | 1.6 | 0.00 | 0.00 | 0.00 | 79 | 1016.3 |
| 20260506031001 | 15 | 51 | 0.0 | 1.6 | 0.00 | 0.00 | 0.00 | 78 | 1016.4 |
| 20260506030501 | 15 | 34 | 0.0 | 1.6 | 0.00 | 0.00 | 0.00 | 78 | 1016.3 |
| 20260506030005 | 15 | 34 | 0.0 | 1.6 | 0.00 | 0.00 | 0.00 | 78 | 1016.3 |
| 20260506025502 | 15 | 9 | 0.0 | 1.6 | 0.00 | 0.00 | 0.00 | 77 | 1016.4 |
| 20260506025005 | 16 | 51 | 0.0 | 1.6 | 0.00 | 0.00 | 0.00 | 77 | 1016.4 |
| 20260506024505 | 16 | 265 | 0.0 | 1.6 | 0.00 | 0.00 | 0.00 | 77 | 1016.4 |
| 20260506024004 | 16 | 93 | 0.0 | 1.6 | 0.00 | 0.00 | 0.00 | 76 | 1016.3 |
| 20260506023504 | 16 | 309 | 0.0 | 1.6 | 0.00 | 0.00 | 0.00 | 77 | 1016.3 |
| 20260506023003 | 16 | 51 | 0.0 | 1.6 | 0.00 | 0.00 | 0.00 | 76 | 1016.3 |
| 20260506022503 | 16 | 9 | 0.0 | 1.6 | 0.00 | 0.00 | 0.00 | 75 | 1016.3 |
| 20260506022003 | 16 | 93 | 0.0 | 1.6 | 0.00 | 0.00 | 0.00 | 75 | 1016.3 |
| 20260506021505 | 16 | 265 | 0.0 | 6.4 | 0.00 | 0.00 | 0.00 | 75 | 1016.3 |
| 20260506021004 | 16 | 178 | 0.0 | 6.4 | 0.00 | 0.00 | 0.00 | 74 | 1016.4 |
| 20260506020503 | 16 | 144 | 1.6 | 3.2 | 0.00 | 0.00 | 0.00 | 75 | 1016.3 |
| 20260506020003 | 16 | 120 | 0.0 | 6.4 | 0.00 | 0.00 | 0.00 | 74 | 1016.3 |
| 20260506015503 | 16 | 137 | 0.0 | 6.4 | 0.00 | 0.00 | 0.00 | 75 | 1016.2 |
| 20260506015003 | 16 | 178 | 1.6 | 6.4 | 0.00 | 0.00 | 0.00 | 75 | 1016.2 |
| 20260506014504 | 16 | 9 | 0.0 | 6.4 | 0.00 | 0.00 | 0.00 | 74 | 1016.3 |
| 20260506014003 | 16 | 171 | 1.6 | 6.4 | 0.00 | 0.00 | 0.00 | 74 | 1016.2 |
| 20260506013504 | 16 | 120 | 0.0 | 6.4 | 0.00 | 0.00 | 0.00 | 75 | 1016.2 |
| 20260506013010 | 16 | 93 | 1.6 | 8.0 | 0.00 | 0.00 | 0.00 | 73 | 1016.2 |
| 20260506012504 | 16 | 178 | 1.6 | 6.4 | 0.00 | 0.00 | 0.00 | 74 | 1016.2 |
| 20260506012004 | 16 | 170 | 1.6 | 6.4 | 0.00 | 0.00 | 0.00 | 73 | 1016.2 |
| 20260506011504 | 16 | 51 | 0.0 | 6.4 | 0.00 | 0.00 | 0.00 | 74 | 1016.2 |
| 20260506011003 | 16 | 165 | 1.6 | 12.9 | 0.00 | 0.00 | 0.00 | 74 | 1016.3 |
| 20260506010504 | 16 | 151 | 4.8 | 12.9 | 0.00 | 0.00 | 0.00 | 73 | 1016.3 |
| 20260506010012 | 16 | 158 | 0.0 | 4.8 | 0.00 | 0.00 | 0.00 | 74 | 1016.4 |
| 20260506005504 | 16 | 360 | 1.6 | 6.4 | 0.00 | 0.00 | 0.00 | 73 | 1016.4 |
| 20260506005001 | 16 | 193 | 1.6 | 12.9 | 0.00 | 0.00 | 0.00 | 73 | 1016.3 |
| 20260506004511 | 16 | 169 | 1.6 | 12.9 | 0.00 | 0.00 | 0.00 | 73 | 1016.4 |
| 20260506004006 | 16 | 171 | 0.0 | 12.9 | 0.00 | 0.00 | 0.00 | 72 | 1016.4 |
| 20260506003505 | 16 | 265 | 0.0 | 12.9 | 0.00 | 0.00 | 0.00 | 74 | 1016.4 |
| 20260506003010 | 16 | 169 | 3.2 | 9.7 | 0.00 | 0.00 | 0.00 | 73 | 1016.4 |
| 20260506002503 | 16 | 148 | 1.6 | 8.0 | 0.00 | 0.00 | 0.00 | 74 | 1016.4 |
| 20260506002002 | 16 | 22 | 0.0 | 6.4 | 0.00 | 0.00 | 0.00 | 72 | 1016.5 |
| 20260506001513 | 16 | 165 | 1.6 | 6.4 | 0.00 | 0.00 | 0.00 | 73 | 1016.5 |
| 20260506001002 | 16 | 93 | 0.0 | 9.7 | 0.00 | 0.00 | 0.00 | 74 | 1016.6 |
| 20260506000504 | 16 | 158 | 3.2 | 9.7 | 0.00 | 0.00 | 0.00 | 74 | 1016.7 |
| 20260506000012 | 16 | 325 | 1.6 | 8.0 | 0.00 | 0.00 | 0.00 | 76 | 1016.7 |
| 20260505235503 | 16 | 178 | 3.2 | 8.0 | 0.00 | 0.00 | 0.00 | 77 | 1016.8 |
| 20260505235003 | 16 | 105 | 1.6 | 8.0 | 0.00 | 0.00 | 0.00 | 76 | 1016.8 |
| 20260505234515 | 16 | 108 | 4.8 | 8.0 | 0.00 | 0.00 | 0.00 | 74 | 1016.8 |
| 20260505234003 | 16 | 178 | 0.0 | 9.7 | 0.00 | 0.00 | 0.00 | 75 | 1016.9 |
| 20260505233505 | 16 | 146 | 1.6 | 9.7 | 0.00 | 0.00 | 0.00 | 76 | 1016.9 |
| 20260505233010 | 16 | 137 | 1.6 | 8.0 | 0.00 | 0.00 | 0.00 | 75 | 1017.0 |
| 20260505232503 | 16 | 153 | 3.2 | 8.0 | 0.00 | 0.00 | 0.00 | 75 | 1017.0 |
| 20260505232002 | 16 | 47 | 1.6 | 8.0 | 0.00 | 0.00 | 0.00 | 76 | 1017.1 |
| 20260505231522 | 15 | 72 | 0.0 | 9.7 | 0.00 | 0.00 | 0.00 | 75 | 1017.0 |
| 20260505231008 | 16 | 146 | 4.8 | 12.9 | 0.00 | 0.00 | 0.00 | 76 | 1017.0 |
| 20260505230503 | 16 | 171 | 1.6 | 12.9 | 0.00 | 0.00 | 0.00 | 77 | 1017.1 |
| 20260505230021 | 16 | 165 | 3.2 | 9.7 | 0.00 | 0.00 | 0.00 | 76 | 1017.1 |
| 20260505225504 | 16 | 51 | 1.6 | 8.0 | 0.00 | 0.00 | 0.00 | 79 | 1017.2 |
| 20260505225004 | 15 | 93 | 1.6 | 8.0 | 0.00 | 0.00 | 0.00 | 79 | 1017.1 |
| 20260505224515 | 15 | 128 | 1.6 | 6.4 | 0.00 | 0.00 | 0.00 | 78 | 1017.2 |
| 20260505224005 | 15 | 115 | 1.6 | 6.4 | 0.00 | 0.00 | 0.00 | 77 | 1017.2 |
| 20260505223507 | 15 | 126 | 0.0 | 6.4 | 0.00 | 0.00 | 0.00 | 78 | 1017.2 |
| 20260505223011 | 15 | 129 | 1.6 | 8.0 | 0.00 | 0.00 | 0.00 | 77 | 1017.2 |
| 20260505222502 | 15 | 146 | 4.8 | 8.0 | 0.00 | 0.00 | 0.00 | 78 | 1017.3 |